Year,Month,Day,Hour,Minute,Value (Times are PST for temperature in C)
2014,06,15,00,00,11.80
2014,06,15,00,01,11.80
2014,06,15,00,02,11.80
2014,06,15,00,03,11.80
2014,06,15,00,04,11.80
2014,06,15,00,05,11.80
2014,06,15,00,06,11.80
2014,06,15,00,07,11.80
2014,06,15,00,08,11.70
2014,06,15,00,09,11.70
2014,06,15,00,10,11.70
2014,06,15,00,11,11.70
2014,06,15,00,12,11.70
2014,06,15,00,16,11.60
2014,06,15,00,17,11.60
2014,06,15,00,18,11.60
2014,06,15,00,19,11.60
2014,06,15,00,20,11.60
2014,06,15,00,21,11.60
2014,06,15,00,22,11.60
2014,06,15,00,23,11.60
2014,06,15,00,24,11.60
2014,06,15,00,25,11.60
2014,06,15,00,26,11.60
2014,06,15,00,27,11.60
2014,06,15,00,28,11.60
2014,06,15,00,29,11.50
2014,06,15,00,30,11.40
2014,06,15,00,31,11.40
2014,06,15,00,32,11.40
2014,06,15,00,33,11.40
2014,06,15,00,34,11.40
2014,06,15,00,35,11.40
2014,06,15,00,36,11.40
2014,06,15,00,37,11.40
2014,06,15,00,38,11.40
2014,06,15,00,39,11.40
2014,06,15,00,40,11.30
2014,06,15,00,41,11.30
2014,06,15,00,42,11.30
2014,06,15,00,43,11.30
2014,06,15,00,44,11.30
2014,06,15,00,45,11.30
2014,06,15,00,46,11.30
2014,06,15,00,47,11.30
2014,06,15,00,48,11.30
2014,06,15,00,49,11.30
2014,06,15,00,50,11.30
2014,06,15,00,51,11.30
2014,06,15,00,52,11.30
2014,06,15,00,53,11.30
2014,06,15,00,54,11.30
2014,06,15,00,55,11.30
2014,06,15,00,56,11.20
2014,06,15,00,57,11.20
2014,06,15,00,58,11.20
2014,06,15,00,59,11.20
2014,06,15,01,00,11.20
2014,06,15,01,01,11.20
2014,06,15,01,02,11.20
2014,06,15,01,03,11.20
2014,06,15,01,04,11.20
2014,06,15,01,05,11.30
2014,06,15,01,06,11.30
2014,06,15,01,07,11.20
2014,06,15,01,08,11.20
2014,06,15,01,09,11.20
2014,06,15,01,10,11.20
2014,06,15,01,11,11.20
2014,06,15,01,12,11.20
2014,06,15,01,13,11.20
2014,06,15,01,14,11.20
2014,06,15,01,15,11.20
2014,06,15,01,16,11.20
2014,06,15,01,17,11.20
2014,06,15,01,18,11.20
2014,06,15,01,19,11.30
2014,06,15,01,20,11.30
2014,06,15,01,21,11.30
2014,06,15,01,22,11.30
2014,06,15,01,23,11.30
2014,06,15,01,24,11.30
2014,06,15,01,25,11.30
2014,06,15,01,26,11.30
2014,06,15,01,27,11.30
2014,06,15,01,28,11.30
2014,06,15,01,29,11.30
2014,06,15,01,30,11.30
2014,06,15,01,31,11.30
2014,06,15,01,32,11.30
2014,06,15,01,33,11.30
2014,06,15,01,34,11.30
2014,06,15,01,35,11.40
2014,06,15,01,36,11.40
2014,06,15,01,37,11.40
2014,06,15,01,38,11.40
2014,06,15,01,39,11.50
2014,06,15,01,40,11.60
2014,06,15,01,41,11.60
2014,06,15,01,42,11.60
2014,06,15,01,43,11.70
2014,06,15,01,44,11.70
2014,06,15,01,45,11.80
2014,06,15,01,46,11.80
2014,06,15,01,47,11.80
2014,06,15,01,48,11.90
2014,06,15,01,49,11.90
2014,06,15,01,50,11.90
2014,06,15,01,51,11.90
2014,06,15,01,52,11.90
2014,06,15,01,53,11.90
2014,06,15,01,54,11.90
2014,06,15,01,55,11.90
2014,06,15,01,56,11.90
2014,06,15,01,57,11.90
2014,06,15,01,58,11.90
2014,06,15,01,59,11.90
2014,06,15,02,00,11.90
2014,06,15,02,01,11.80
2014,06,15,02,02,11.80
2014,06,15,02,03,11.80
2014,06,15,02,04,11.80
2014,06,15,02,05,11.80
2014,06,15,02,06,11.80
2014,06,15,02,07,11.80
2014,06,15,02,08,11.80
2014,06,15,02,09,11.80
2014,06,15,02,10,11.80
2014,06,15,02,11,11.80
2014,06,15,02,12,11.80
2014,06,15,02,13,11.80
2014,06,15,02,14,11.90
2014,06,15,02,15,11.90
2014,06,15,02,16,11.90
2014,06,15,02,17,11.90
2014,06,15,02,18,11.90
2014,06,15,02,19,11.80
2014,06,15,02,20,11.80
2014,06,15,02,21,11.80
2014,06,15,02,22,11.80
2014,06,15,02,23,11.80
2014,06,15,02,24,11.80
2014,06,15,02,25,11.80
2014,06,15,02,26,11.80
2014,06,15,02,27,11.80
2014,06,15,02,28,11.80
2014,06,15,02,29,11.80
2014,06,15,02,30,11.70
2014,06,15,02,31,11.70
2014,06,15,02,32,11.70
2014,06,15,02,33,11.70
2014,06,15,02,34,11.70
2014,06,15,02,35,11.70
2014,06,15,02,36,11.70
2014,06,15,02,37,11.70
2014,06,15,02,38,11.70
2014,06,15,02,39,11.70
2014,06,15,02,40,11.70
2014,06,15,02,41,11.70
2014,06,15,02,42,11.70
2014,06,15,02,43,11.70
2014,06,15,02,44,11.70
2014,06,15,02,45,11.70
2014,06,15,02,46,11.70
2014,06,15,02,47,11.70
2014,06,15,02,48,11.80
2014,06,15,02,49,11.80
2014,06,15,02,50,11.80
2014,06,15,02,51,11.80
2014,06,15,02,52,11.80
2014,06,15,02,53,11.80
2014,06,15,02,54,11.80
2014,06,15,02,55,11.80
2014,06,15,02,56,11.80
2014,06,15,02,57,11.80
2014,06,15,02,58,11.80
2014,06,15,02,59,11.80
2014,06,15,03,00,11.80
2014,06,15,03,01,11.80
2014,06,15,03,02,11.80
2014,06,15,03,03,11.80
2014,06,15,03,04,11.80
2014,06,15,03,05,11.80
2014,06,15,03,06,11.80
2014,06,15,03,07,11.80
2014,06,15,03,08,11.80
2014,06,15,03,09,11.80
2014,06,15,03,10,11.80
2014,06,15,03,11,11.80
2014,06,15,03,12,11.80
2014,06,15,03,13,11.80
2014,06,15,03,14,11.80
2014,06,15,03,15,11.80
2014,06,15,03,16,11.80
2014,06,15,03,17,11.80
2014,06,15,03,18,11.80
2014,06,15,03,19,11.80
2014,06,15,03,20,11.80
2014,06,15,03,21,11.80
2014,06,15,03,22,11.80
2014,06,15,03,23,11.80
2014,06,15,03,24,11.80
2014,06,15,03,25,11.80
2014,06,15,03,26,11.80
2014,06,15,03,27,11.80
2014,06,15,03,28,11.70
2014,06,15,03,29,11.70
2014,06,15,03,30,11.70
2014,06,15,03,31,11.70
2014,06,15,03,32,11.70
2014,06,15,03,33,11.70
2014,06,15,03,34,11.70
2014,06,15,03,35,11.70
2014,06,15,03,36,11.60
2014,06,15,03,37,11.60
2014,06,15,03,38,11.60
2014,06,15,03,39,11.60
2014,06,15,03,40,11.60
2014,06,15,03,41,11.60
2014,06,15,03,42,11.60
2014,06,15,03,43,11.60
2014,06,15,03,44,11.60
2014,06,15,03,45,11.60
2014,06,15,03,46,11.60
2014,06,15,03,47,11.60
2014,06,15,03,48,11.60
2014,06,15,03,49,11.60
2014,06,15,03,50,11.60
2014,06,15,03,51,11.60
2014,06,15,03,52,11.60
2014,06,15,03,53,11.60
2014,06,15,03,54,11.60
2014,06,15,03,55,11.60
2014,06,15,03,56,11.60
2014,06,15,03,57,11.60
2014,06,15,03,58,11.60
2014,06,15,03,59,11.60
2014,06,15,04,00,11.60
2014,06,15,04,01,11.60
2014,06,15,04,02,11.60
2014,06,15,04,03,11.60
2014,06,15,04,04,11.60
2014,06,15,04,05,11.60
2014,06,15,04,06,11.60
2014,06,15,04,07,11.60
2014,06,15,04,08,11.60
2014,06,15,04,09,11.60
2014,06,15,04,10,11.60
2014,06,15,04,11,11.60
2014,06,15,04,12,11.60
2014,06,15,04,13,11.60
2014,06,15,04,14,11.60
2014,06,15,04,15,11.60
2014,06,15,04,16,11.60
2014,06,15,04,17,11.60
2014,06,15,04,18,11.60
2014,06,15,04,19,11.60
2014,06,15,04,20,11.60
2014,06,15,04,21,11.60
2014,06,15,04,22,11.60
2014,06,15,04,23,11.60
2014,06,15,04,24,11.60
2014,06,15,04,25,11.60
2014,06,15,04,26,11.60
2014,06,15,04,27,11.60
2014,06,15,04,28,11.60
2014,06,15,04,29,11.60
2014,06,15,04,30,11.60
2014,06,15,04,31,11.60
2014,06,15,04,32,11.60
2014,06,15,04,33,11.60
2014,06,15,04,34,11.60
2014,06,15,04,35,11.60
2014,06,15,04,36,11.60
2014,06,15,04,37,11.60
2014,06,15,04,38,11.40
2014,06,15,04,39,11.40
2014,06,15,04,40,11.40
2014,06,15,04,41,11.40
2014,06,15,04,42,11.40
2014,06,15,04,43,11.40
2014,06,15,04,44,11.40
2014,06,15,04,45,11.40
2014,06,15,04,46,11.40
2014,06,15,04,47,11.40
2014,06,15,04,48,11.40
2014,06,15,04,49,11.40
2014,06,15,04,50,11.40
2014,06,15,04,51,11.40
2014,06,15,04,52,11.40
2014,06,15,04,53,11.40
2014,06,15,04,54,11.40
2014,06,15,04,55,11.40
2014,06,15,04,56,11.40
2014,06,15,04,57,11.40
2014,06,15,04,58,11.40
2014,06,15,04,59,11.40
2014,06,15,05,00,11.40
2014,06,15,05,01,11.40
2014,06,15,05,02,11.30
2014,06,15,05,03,11.30
2014,06,15,05,04,11.30
2014,06,15,05,05,11.30
2014,06,15,05,06,11.30
2014,06,15,05,07,11.30
2014,06,15,05,08,11.30
2014,06,15,05,09,11.30
2014,06,15,05,10,11.30
2014,06,15,05,11,11.30
2014,06,15,05,12,11.30
2014,06,15,05,13,11.30
2014,06,15,05,14,11.30
2014,06,15,05,15,11.30
2014,06,15,05,16,11.30
2014,06,15,05,17,11.30
2014,06,15,05,18,11.20
2014,06,15,05,19,11.20
2014,06,15,05,20,11.20
2014,06,15,05,21,11.20
2014,06,15,05,22,11.20
2014,06,15,05,23,11.20
2014,06,15,05,24,11.20
2014,06,15,05,25,11.20
2014,06,15,05,26,11.20
2014,06,15,05,27,11.20
2014,06,15,05,28,11.10
2014,06,15,05,29,11.10
2014,06,15,05,30,11.20
2014,06,15,05,31,11.10
2014,06,15,05,32,11.10
2014,06,15,05,33,11.10
2014,06,15,05,34,11.10
2014,06,15,05,35,11.10
2014,06,15,05,36,11.10
2014,06,15,05,37,11.10
2014,06,15,05,38,11.10
2014,06,15,05,39,11.10
2014,06,15,05,40,11.10
2014,06,15,05,41,11.10
2014,06,15,05,42,11.10
2014,06,15,05,43,11.10
2014,06,15,05,44,11.10
2014,06,15,05,45,11.10
2014,06,15,05,46,11.10
2014,06,15,05,47,11.10
2014,06,15,05,48,11.10
2014,06,15,05,49,11.10
2014,06,15,05,50,11.10
2014,06,15,05,51,11.10
2014,06,15,05,52,11.10
2014,06,15,05,53,11.10
2014,06,15,05,54,11.10
2014,06,15,05,55,11.10
2014,06,15,05,56,11.10
2014,06,15,05,57,11.10
2014,06,15,05,58,11.10
2014,06,15,05,59,11.10
2014,06,15,06,00,11.10
2014,06,15,06,01,11.10
2014,06,15,06,02,11.10
2014,06,15,06,03,11.10
2014,06,15,06,04,11.10
2014,06,15,06,05,11.10
2014,06,15,06,06,11.10
2014,06,15,06,07,11.10
2014,06,15,06,08,11.10
2014,06,15,06,09,11.10
2014,06,15,06,10,11.10
2014,06,15,06,11,11.10
2014,06,15,06,12,11.10
2014,06,15,06,13,11.10
2014,06,15,06,14,11.10
2014,06,15,06,15,11.20
2014,06,15,06,16,11.20
2014,06,15,06,17,11.20
2014,06,15,06,18,11.20
2014,06,15,06,19,11.20
2014,06,15,06,20,11.20
2014,06,15,06,21,11.20
2014,06,15,06,22,11.20
2014,06,15,06,23,11.20
2014,06,15,06,24,11.20
2014,06,15,06,25,11.30
2014,06,15,06,26,11.30
2014,06,15,06,27,11.30
2014,06,15,06,28,11.30
2014,06,15,06,29,11.30
2014,06,15,06,30,11.30
2014,06,15,06,31,11.40
2014,06,15,06,32,11.40
2014,06,15,06,33,11.40
2014,06,15,06,34,11.40
2014,06,15,06,35,11.40
2014,06,15,06,36,11.40
2014,06,15,06,37,11.40
2014,06,15,06,38,11.40
2014,06,15,06,39,11.40
2014,06,15,06,40,11.40
2014,06,15,06,41,11.40
2014,06,15,06,42,11.40
2014,06,15,06,43,11.40
2014,06,15,06,44,11.40
2014,06,15,06,45,11.40
2014,06,15,06,46,11.40
2014,06,15,06,47,11.40
2014,06,15,06,48,11.40
2014,06,15,06,49,11.40
2014,06,15,06,50,11.40
2014,06,15,06,51,11.40
2014,06,15,06,52,11.40
2014,06,15,06,53,11.40
2014,06,15,06,54,11.40
2014,06,15,06,55,11.40
2014,06,15,06,56,11.40
2014,06,15,06,57,11.40
2014,06,15,06,58,11.40
2014,06,15,06,59,11.40
2014,06,15,07,00,11.40
2014,06,15,07,01,11.40
2014,06,15,07,02,11.40
2014,06,15,07,03,11.40
2014,06,15,07,04,11.40
2014,06,15,07,05,11.50
2014,06,15,07,06,11.50
2014,06,15,07,07,11.50
2014,06,15,07,08,11.60
2014,06,15,07,09,11.60
2014,06,15,07,10,11.60
2014,06,15,07,11,11.60
2014,06,15,07,12,11.60
2014,06,15,07,13,11.60
2014,06,15,07,14,11.60
2014,06,15,07,15,11.60
2014,06,15,07,16,11.60
2014,06,15,07,17,11.60
2014,06,15,07,18,11.60
2014,06,15,07,19,11.60
2014,06,15,07,20,11.70
2014,06,15,07,21,11.70
2014,06,15,07,22,11.70
2014,06,15,07,23,11.80
2014,06,15,07,24,11.80
2014,06,15,07,25,11.80
2014,06,15,07,26,11.90
2014,06,15,07,27,12.00
2014,06,15,07,28,12.10
2014,06,15,07,29,12.20
2014,06,15,07,30,12.30
2014,06,15,07,31,12.30
2014,06,15,07,32,12.40
2014,06,15,07,33,12.40
2014,06,15,07,34,12.50
2014,06,15,07,35,12.50
2014,06,15,07,36,12.60
2014,06,15,07,37,12.60
2014,06,15,07,38,12.70
2014,06,15,07,39,12.80
2014,06,15,07,40,12.80
2014,06,15,07,41,12.90
2014,06,15,07,42,12.90
2014,06,15,07,43,13.00
2014,06,15,07,44,13.00
2014,06,15,07,45,13.10
2014,06,15,07,46,13.10
2014,06,15,07,47,13.20
2014,06,15,07,48,13.20
2014,06,15,07,49,13.20
2014,06,15,07,50,13.20
2014,06,15,07,51,13.30
2014,06,15,07,52,13.30
2014,06,15,07,53,13.30
2014,06,15,07,54,13.30
2014,06,15,07,55,13.30
2014,06,15,07,56,13.30
2014,06,15,07,57,13.30
2014,06,15,07,58,13.30
2014,06,15,07,59,13.30
2014,06,15,08,00,13.30
2014,06,15,08,01,13.40
2014,06,15,08,02,13.40
2014,06,15,08,03,13.40
2014,06,15,08,04,13.40
2014,06,15,08,05,13.50
2014,06,15,08,06,13.50
2014,06,15,08,07,13.50
2014,06,15,08,08,13.50
2014,06,15,08,09,13.50
2014,06,15,08,10,13.50
2014,06,15,08,11,13.40
2014,06,15,08,12,13.40
2014,06,15,08,13,13.40
2014,06,15,08,14,13.40
2014,06,15,08,15,13.40
2014,06,15,08,16,13.40
2014,06,15,08,17,13.40
2014,06,15,08,18,13.40
2014,06,15,08,19,13.30
2014,06,15,08,20,13.40
2014,06,15,08,21,13.40
2014,06,15,08,22,13.40
2014,06,15,08,23,13.40
2014,06,15,08,24,13.40
2014,06,15,08,25,13.40
2014,06,15,08,26,13.40
2014,06,15,08,27,13.40
2014,06,15,08,28,13.40
2014,06,15,08,29,13.40
2014,06,15,08,30,13.40
2014,06,15,08,31,13.40
2014,06,15,08,32,13.40
2014,06,15,08,33,13.40
2014,06,15,08,34,13.40
2014,06,15,08,35,13.40
2014,06,15,08,36,13.40
2014,06,15,08,37,13.40
2014,06,15,08,38,13.40
2014,06,15,08,39,13.40
2014,06,15,08,40,13.50
2014,06,15,08,41,13.50
2014,06,15,08,42,13.60
2014,06,15,08,43,13.60
2014,06,15,08,44,13.50
2014,06,15,08,45,13.50
2014,06,15,08,46,13.50
2014,06,15,08,47,13.40
2014,06,15,08,48,13.30
2014,06,15,08,49,13.30
2014,06,15,08,50,13.30
2014,06,15,08,51,13.20
2014,06,15,08,52,13.20
2014,06,15,08,53,13.10
2014,06,15,08,54,13.10
2014,06,15,08,55,13.00
2014,06,15,08,56,13.00
2014,06,15,08,57,12.90
2014,06,15,08,58,12.90
2014,06,15,08,59,12.90
2014,06,15,09,00,12.90
2014,06,15,09,01,12.90
2014,06,15,09,02,13.00
2014,06,15,09,03,13.10
2014,06,15,09,04,13.10
2014,06,15,09,05,13.20
2014,06,15,09,06,13.20
2014,06,15,09,07,13.30
2014,06,15,09,08,13.50
2014,06,15,09,09,13.50
2014,06,15,09,10,13.60
2014,06,15,09,11,13.60
2014,06,15,09,12,13.70
2014,06,15,09,13,13.70
2014,06,15,09,14,13.70
2014,06,15,09,15,13.80
2014,06,15,09,16,13.90
2014,06,15,09,17,14.00
2014,06,15,09,18,14.00
2014,06,15,09,19,14.10
2014,06,15,09,20,14.10
2014,06,15,09,21,14.10
2014,06,15,09,22,14.10
2014,06,15,09,23,14.10
2014,06,15,09,24,14.00
2014,06,15,09,25,14.00
2014,06,15,09,26,14.00
2014,06,15,09,27,14.00
2014,06,15,09,28,14.00
2014,06,15,09,29,13.90
2014,06,15,09,30,13.80
2014,06,15,09,31,13.70
2014,06,15,09,32,13.60
2014,06,15,09,33,13.60
2014,06,15,09,34,13.60
2014,06,15,09,35,13.60
2014,06,15,09,36,13.60
2014,06,15,09,37,13.60
2014,06,15,09,38,13.60
2014,06,15,09,39,13.50
2014,06,15,09,40,13.50
2014,06,15,09,41,13.30
2014,06,15,09,42,13.30
2014,06,15,09,43,13.30
2014,06,15,09,44,13.20
2014,06,15,09,45,13.20
2014,06,15,09,46,13.20
2014,06,15,09,47,13.20
2014,06,15,09,48,13.10
2014,06,15,09,49,13.10
2014,06,15,09,50,13.20
2014,06,15,09,51,13.20
2014,06,15,09,52,13.20
2014,06,15,09,53,13.20
2014,06,15,09,54,13.20
2014,06,15,09,55,13.20
2014,06,15,09,56,13.30
2014,06,15,09,57,13.30
2014,06,15,09,58,13.30
2014,06,15,09,59,13.30
2014,06,15,10,00,13.20
2014,06,15,10,01,13.10
2014,06,15,10,02,13.10
2014,06,15,10,03,13.10
2014,06,15,10,04,13.00
2014,06,15,10,05,12.90
2014,06,15,10,06,12.90
2014,06,15,10,07,13.00
2014,06,15,10,08,13.00
2014,06,15,10,09,13.00
2014,06,15,10,10,12.90
2014,06,15,10,11,12.90
2014,06,15,10,12,12.80
2014,06,15,10,13,12.80
2014,06,15,10,14,12.80
2014,06,15,10,15,12.70
2014,06,15,10,16,12.70
2014,06,15,10,17,12.70
2014,06,15,10,18,12.60
2014,06,15,10,19,12.60
2014,06,15,10,20,12.60
2014,06,15,10,21,12.60
2014,06,15,10,22,12.60
2014,06,15,10,23,12.60
2014,06,15,10,24,12.60
2014,06,15,10,25,12.70
2014,06,15,10,26,12.70
2014,06,15,10,27,12.80
2014,06,15,10,28,12.90
2014,06,15,10,29,13.00
2014,06,15,10,30,13.00
2014,06,15,10,31,13.00
2014,06,15,10,32,13.00
2014,06,15,10,33,13.00
2014,06,15,10,34,13.00
2014,06,15,10,35,13.00
2014,06,15,10,36,13.10
2014,06,15,10,37,13.20
2014,06,15,10,38,13.40
2014,06,15,10,39,13.50
2014,06,15,10,40,13.50
2014,06,15,10,41,13.50
2014,06,15,10,42,13.50
2014,06,15,10,43,13.60
2014,06,15,10,44,13.60
2014,06,15,10,45,13.60
2014,06,15,10,46,13.60
2014,06,15,10,47,13.70
2014,06,15,10,48,13.70
2014,06,15,10,49,13.70
2014,06,15,10,50,13.70
2014,06,15,10,51,13.70
2014,06,15,10,52,13.80
2014,06,15,10,53,13.80
2014,06,15,10,54,13.90
2014,06,15,10,55,13.90
2014,06,15,10,56,14.00
2014,06,15,10,57,14.00
2014,06,15,10,58,14.10
2014,06,15,10,59,14.20
2014,06,15,11,00,14.40
2014,06,15,11,01,14.50
2014,06,15,11,02,14.60
2014,06,15,11,03,14.60
2014,06,15,11,04,14.60
2014,06,15,11,05,14.60
2014,06,15,11,06,14.60
2014,06,15,11,07,14.50
2014,06,15,11,08,14.50
2014,06,15,11,09,14.50
2014,06,15,11,10,14.50
2014,06,15,11,11,14.50
2014,06,15,11,12,14.60
2014,06,15,11,13,14.70
2014,06,15,11,14,14.80
2014,06,15,11,15,14.90
2014,06,15,11,16,15.00
2014,06,15,11,17,15.20
2014,06,15,11,18,15.30
2014,06,15,11,19,15.30
2014,06,15,11,20,15.30
2014,06,15,11,21,15.10
2014,06,15,11,22,15.00
2014,06,15,11,23,14.90
2014,06,15,11,24,14.80
2014,06,15,11,25,14.80
2014,06,15,11,26,14.70
2014,06,15,11,27,14.60
2014,06,15,11,28,14.60
2014,06,15,11,29,14.50
2014,06,15,11,30,14.50
2014,06,15,11,31,14.50
2014,06,15,11,32,14.40
2014,06,15,11,33,14.40
2014,06,15,11,34,14.30
2014,06,15,11,35,14.30
2014,06,15,11,36,14.40
2014,06,15,11,37,14.40
2014,06,15,11,38,14.40
2014,06,15,11,39,14.40
2014,06,15,11,40,14.40
2014,06,15,11,41,14.40
2014,06,15,11,42,14.30
2014,06,15,11,43,14.40
2014,06,15,11,44,14.40
2014,06,15,11,45,14.40
2014,06,15,11,46,14.40
2014,06,15,11,47,14.40
2014,06,15,11,48,14.30
2014,06,15,11,49,14.30
2014,06,15,11,50,14.30
2014,06,15,11,51,14.30
2014,06,15,11,52,14.20
2014,06,15,11,53,14.20
2014,06,15,11,54,14.20
2014,06,15,11,55,14.10
2014,06,15,11,56,14.10
2014,06,15,11,57,14.10
2014,06,15,11,58,14.10
2014,06,15,11,59,14.10
2014,06,15,12,00,14.10
2014,06,15,12,01,14.10
2014,06,15,12,02,14.20
2014,06,15,12,03,14.20
2014,06,15,12,04,14.20
2014,06,15,12,05,14.20
2014,06,15,12,06,14.20
2014,06,15,12,07,14.20
2014,06,15,12,08,14.30
2014,06,15,12,09,14.20
2014,06,15,12,10,14.20
2014,06,15,12,11,14.30
2014,06,15,12,12,14.40
2014,06,15,12,13,14.40
2014,06,15,12,14,14.40
2014,06,15,12,15,14.40
2014,06,15,12,16,14.40
2014,06,15,12,17,14.40
2014,06,15,12,18,14.40
2014,06,15,12,19,14.30
2014,06,15,12,20,14.40
2014,06,15,12,21,14.40
2014,06,15,12,22,14.40
2014,06,15,12,23,14.50
2014,06,15,12,24,14.40
2014,06,15,12,25,14.40
2014,06,15,12,26,14.50
2014,06,15,12,27,14.50
2014,06,15,12,28,14.40
2014,06,15,12,29,14.40
2014,06,15,12,30,14.30
2014,06,15,12,31,14.20
2014,06,15,12,32,14.10
2014,06,15,12,33,14.00
2014,06,15,12,34,14.00
2014,06,15,12,35,13.90
2014,06,15,12,36,13.90
2014,06,15,12,37,13.80
2014,06,15,12,38,13.70
2014,06,15,12,39,13.70
2014,06,15,12,40,13.60
2014,06,15,12,41,13.50
2014,06,15,12,42,13.50
2014,06,15,12,43,13.40
2014,06,15,12,44,13.40
2014,06,15,12,45,13.30
2014,06,15,12,46,13.30
2014,06,15,12,47,13.30
2014,06,15,12,48,13.30
2014,06,15,12,49,13.30
2014,06,15,12,50,13.30
2014,06,15,12,51,13.40
2014,06,15,12,52,13.40
2014,06,15,12,53,13.50
2014,06,15,12,54,13.60
2014,06,15,12,55,13.70
2014,06,15,12,56,13.70
2014,06,15,12,57,13.80
2014,06,15,12,58,13.80
2014,06,15,12,59,13.80
2014,06,15,13,00,13.90
2014,06,15,13,01,14.00
2014,06,15,13,02,14.10
2014,06,15,13,03,14.30
2014,06,15,13,04,14.50
2014,06,15,13,05,14.60
2014,06,15,13,06,14.90
2014,06,15,13,07,15.10
2014,06,15,13,08,15.20
2014,06,15,13,09,15.20
2014,06,15,13,10,15.40
2014,06,15,13,11,15.40
2014,06,15,13,12,15.30
2014,06,15,13,13,15.30
2014,06,15,13,14,15.20
2014,06,15,13,15,15.20
2014,06,15,13,16,15.10
2014,06,15,13,17,15.00
2014,06,15,13,18,14.90
2014,06,15,13,19,14.90
2014,06,15,13,20,14.80
2014,06,15,13,21,14.80
2014,06,15,13,22,14.80
2014,06,15,13,23,14.80
2014,06,15,13,24,14.90
2014,06,15,13,25,15.00
2014,06,15,13,26,15.00
2014,06,15,13,27,15.00
2014,06,15,13,28,15.00
2014,06,15,13,29,14.90
2014,06,15,13,30,14.90
2014,06,15,13,31,14.80
2014,06,15,13,32,14.80
2014,06,15,13,33,14.80
2014,06,15,13,34,14.80
2014,06,15,13,35,14.80
2014,06,15,13,36,14.70
2014,06,15,13,37,14.80
2014,06,15,13,38,14.80
2014,06,15,13,39,14.80
2014,06,15,13,40,14.90
2014,06,15,13,41,14.90
2014,06,15,13,42,15.00
2014,06,15,13,43,15.00
2014,06,15,13,44,15.00
2014,06,15,13,45,15.00
2014,06,15,13,46,15.10
2014,06,15,13,47,15.10
2014,06,15,13,48,15.20
2014,06,15,13,49,15.40
2014,06,15,13,50,15.50
2014,06,15,13,51,15.50
2014,06,15,13,52,15.50
2014,06,15,13,53,15.60
2014,06,15,13,54,15.60
2014,06,15,13,55,15.60
2014,06,15,13,56,15.50
2014,06,15,13,57,15.50
2014,06,15,13,58,15.60
2014,06,15,13,59,15.70
2014,06,15,14,00,15.80
2014,06,15,14,01,15.80
2014,06,15,14,02,15.80
2014,06,15,14,03,16.00
2014,06,15,14,04,16.10
2014,06,15,14,05,16.20
2014,06,15,14,06,16.30
2014,06,15,14,07,16.40
2014,06,15,14,08,16.50
2014,06,15,14,09,16.60
2014,06,15,14,10,16.70
2014,06,15,14,11,16.80
2014,06,15,14,12,16.80
2014,06,15,14,13,16.90
2014,06,15,14,14,16.90
2014,06,15,14,15,17.00
2014,06,15,14,16,17.00
2014,06,15,14,17,17.20
2014,06,15,14,18,17.20
2014,06,15,14,19,17.30
2014,06,15,14,20,17.40
2014,06,15,14,21,17.60
2014,06,15,14,22,17.60
2014,06,15,14,23,17.70
2014,06,15,14,24,17.60
2014,06,15,14,25,17.50
2014,06,15,14,26,17.40
2014,06,15,14,27,17.40
2014,06,15,14,28,17.40
2014,06,15,14,29,17.30
2014,06,15,14,30,17.40
2014,06,15,14,31,17.50
2014,06,15,14,32,17.60
2014,06,15,14,33,17.60
2014,06,15,14,34,17.50
2014,06,15,14,35,17.40
2014,06,15,14,36,17.30
2014,06,15,14,37,17.30
2014,06,15,14,38,17.30
2014,06,15,14,39,17.40
2014,06,15,14,40,17.40
2014,06,15,14,41,17.60
2014,06,15,14,42,17.70
2014,06,15,14,43,17.80
2014,06,15,14,44,17.90
2014,06,15,14,45,17.90
2014,06,15,14,46,17.90
2014,06,15,14,47,17.80
2014,06,15,14,48,17.60
2014,06,15,14,49,17.40
2014,06,15,14,50,17.30
2014,06,15,14,51,17.10
2014,06,15,14,52,17.00
2014,06,15,14,53,17.00
2014,06,15,14,54,16.90
2014,06,15,14,55,16.90
2014,06,15,14,56,17.00
2014,06,15,14,57,17.10
2014,06,15,14,58,17.20
2014,06,15,14,59,17.20
2014,06,15,15,00,17.20
2014,06,15,15,01,17.10
2014,06,15,15,02,17.00
2014,06,15,15,03,16.90
2014,06,15,15,04,16.70
2014,06,15,15,05,16.60
2014,06,15,15,06,16.50
2014,06,15,15,07,16.40
2014,06,15,15,08,16.40
2014,06,15,15,09,16.40
2014,06,15,15,10,16.60
2014,06,15,15,11,16.60
2014,06,15,15,12,16.70
2014,06,15,15,13,16.70
2014,06,15,15,14,16.70
2014,06,15,15,15,16.60
2014,06,15,15,16,16.60
2014,06,15,15,17,16.50
2014,06,15,15,18,16.40
2014,06,15,15,19,16.40
2014,06,15,15,20,16.40
2014,06,15,15,21,16.40
2014,06,15,15,22,16.40
2014,06,15,15,23,16.30
2014,06,15,15,24,16.30
2014,06,15,15,25,16.20
2014,06,15,15,26,16.10
2014,06,15,15,27,16.10
2014,06,15,15,28,16.10
2014,06,15,15,29,16.10
2014,06,15,15,30,16.10
2014,06,15,15,31,16.10
2014,06,15,15,32,16.20
2014,06,15,15,33,16.30
2014,06,15,15,34,16.30
2014,06,15,15,35,16.30
2014,06,15,15,36,16.30
2014,06,15,15,37,16.30
2014,06,15,15,38,16.30
2014,06,15,15,39,16.30
2014,06,15,15,40,16.20
2014,06,15,15,41,16.20
2014,06,15,15,42,16.10
2014,06,15,15,43,16.10
2014,06,15,15,44,16.20
2014,06,15,15,45,16.30
2014,06,15,15,46,16.30
2014,06,15,15,47,16.40
2014,06,15,15,48,16.50
2014,06,15,15,49,16.70
2014,06,15,15,50,16.70
2014,06,15,15,51,16.70
2014,06,15,15,52,16.60
2014,06,15,15,53,16.40
2014,06,15,15,54,16.50
2014,06,15,15,55,16.60
2014,06,15,15,56,16.80
2014,06,15,15,57,17.00
2014,06,15,15,58,17.10
2014,06,15,15,59,17.20
2014,06,15,16,00,17.40
2014,06,15,16,01,17.50
2014,06,15,16,02,17.60
2014,06,15,16,03,17.60
2014,06,15,16,04,17.50
2014,06,15,16,05,17.70
2014,06,15,16,06,17.70
2014,06,15,16,07,17.70
2014,06,15,16,08,17.70
2014,06,15,16,09,17.60
2014,06,15,16,10,17.60
2014,06,15,16,11,17.40
2014,06,15,16,12,17.30
2014,06,15,16,13,17.30
2014,06,15,16,14,17.40
2014,06,15,16,15,17.50
2014,06,15,16,16,17.50
2014,06,15,16,17,17.40
2014,06,15,16,18,17.30
2014,06,15,16,19,17.30
2014,06,15,16,20,17.20
2014,06,15,16,21,17.00
2014,06,15,16,22,16.80
2014,06,15,16,23,16.70
2014,06,15,16,24,16.60
2014,06,15,16,25,16.60
2014,06,15,16,26,16.60
2014,06,15,16,27,16.60
2014,06,15,16,28,16.60
2014,06,15,16,29,16.60
2014,06,15,16,30,16.60
2014,06,15,16,31,16.60
2014,06,15,16,32,16.70
2014,06,15,16,33,16.70
2014,06,15,16,34,16.70
2014,06,15,16,35,16.70
2014,06,15,16,36,16.70
2014,06,15,16,37,16.70
2014,06,15,16,38,16.70
2014,06,15,16,39,16.60
2014,06,15,16,40,16.50
2014,06,15,16,41,16.40
2014,06,15,16,42,16.30
2014,06,15,16,43,16.20
2014,06,15,16,44,16.10
2014,06,15,16,45,16.00
2014,06,15,16,46,15.90
2014,06,15,16,47,15.90
2014,06,15,16,48,15.80
2014,06,15,16,49,15.80
2014,06,15,16,50,15.80
2014,06,15,16,51,15.80
2014,06,15,16,52,15.80
2014,06,15,16,53,15.70
2014,06,15,16,54,15.70
2014,06,15,16,55,15.70
2014,06,15,16,56,15.60
2014,06,15,16,57,15.60
2014,06,15,16,58,15.50
2014,06,15,16,59,15.50
2014,06,15,17,00,15.50
2014,06,15,17,01,15.50
2014,06,15,17,02,15.50
2014,06,15,17,03,15.50
2014,06,15,17,04,15.50
2014,06,15,17,05,15.40
2014,06,15,17,06,15.40
2014,06,15,17,07,15.30
2014,06,15,17,08,15.30
2014,06,15,17,09,15.20
2014,06,15,17,10,15.20
2014,06,15,17,11,15.20
2014,06,15,17,12,15.20
2014,06,15,17,13,15.20
2014,06,15,17,14,15.20
2014,06,15,17,15,15.20
2014,06,15,17,16,15.30
2014,06,15,17,17,15.30
2014,06,15,17,18,15.30
2014,06,15,17,19,15.30
2014,06,15,17,20,15.30
2014,06,15,17,21,15.30
2014,06,15,17,22,15.30